Location: Arapaho Elementary School
(32.9607°N, 96.7625°W)
Time: 07:04:42
(UTC+00:00)

CZ-2C R/B - Pass Details

Date: 09 July 2022
Orbit: 783 x 871 km, 98.2° (Epoch: 12 August)

Event Time Altitude Azimuth Distance (km) Brightness Sun altitude
Rises 09:49:39 0° 129° (SE) 3,425 6.0 -17.4°
Reaches altitude 10° 09:52:33 10° 114° (ESE) 2,501 5.5 -16.9°
Maximum altitude 09:56:36 21° 67° (ENE) 1,850 5.4 -16.3°
Drops below altitude 10° 10:00:41 10° 20° (NNE) 2,522 6.1 -15.7°
Sets 10:03:37 0° 5° (N) 3,462 6.6 -15.2°
